Simultaneous Nadir Overpasses (SNOs) Predictions

Prediction of SNOs between GOES-17 and TERRA Satellite Orbit:

Table of predicted SNOs for the next 14.0 days since TLE Epoch: 12/10/2022
Index Date Time (GOES-17) GOES-17 Lat,Lon TERRA Lat,Lon Distance(km) Time Diff (sec)
1 12/11/2022 19:10:31 0.02,-137.32 -0.61,-134.23 350.80 80
2 12/12/2022 07:30:59 -0.02,-137.31 -0.45,-139.20 215.86 80
3 12/14/2022 07:12:36 -0.03,-137.30 0.37,-135.41 215.09 80
4 12/14/2022 19:32:57 0.03,-137.30 0.69,-140.35 346.64 80
5 12/16/2022 19:19:54 0.04,-137.28 -0.14,-136.55 83.81 80
6 12/17/2022 07:40:22 -0.04,-137.27 -0.96,-141.52 482.91 80
7 12/19/2022 07:24:39 -0.04,-137.25 -0.11,-137.72 53.52 80
8 12/21/2022 07:08:54 -0.04,-137.21 0.64,-133.91 375.10 80
9 12/21/2022 19:26:36 0.03,-137.21 0.36,-138.86 187.58 80
10 12/23/2022 19:13:31 0.04,-137.16 -0.40,-135.05 239.85 80
